Flag for Germany Weather past 2 weeks in Augsburg, Bavaria, Germany

Now
61 °F

Partly sunny.


Feels Like: 61 °F
Forecast: 53 / 64 °F
Wind: 3 mph from North

Location: Augsburg Airport

Current Time: Sep 2, 2014 at 2:18:56 PM

Latest Report: Sep 2, 2014 at 1:50 PM


Visibility: N/A

Pressure: 30.15 "Hg

Humidity: 72%

Dew point: 52 °F

Location of AugsburgLocation

Historic Weather in Augsburg — Graph

°F

Augsburg temperature yesterday

Maximum temperature yesterday: 59 °F (at 2:20 PM)
Minimum temperature yesterday: 52 °F (at 6:20 AM)
Average temperature yesterday: 56 °F

Past Weeks' High & Low Weather Summary

 TemperatureHumidityPressure
High73 °F (Aug 30, 4:50 PM)100% (Aug 19, 6:50 AM)30.18 "Hg (Aug 19, 6:50 AM)
Low41 °F (Aug 25, 6:50 AM)35% (Aug 21, 5:20 PM)29.74 "Hg (Aug 26, 6:20 AM)
Average61 °F71%30.02 "Hg
* Reported Aug 18 1:20 PM — Sep 2 1:20 PM, Augsburg, Weather by CustomWeather, © 2014

Note: Actual official high and low records may vary slightly from our data, if they occured in-between our weather recording intervals... More about our weather records

Advertising

Augsburg weather history for previous 24 hours

 ConditionsComfort  
Time TempWeatherWind HumidityBarometerVisibility
1:20 PM
Sep 2
59 °FDrizzle. Partly sunny.6 mph77%30.15 "HgN/A
12:50 PM61 °FPartly sunny.7 mph68%30.15 "HgN/A
12:20 PM61 °FPartly sunny.3 mph68%30.15 "HgN/A
11:50 AM61 °FScattered clouds.5 mph68%30.15 "HgN/A
11:20 AM59 °FScattered clouds.6 mph72%30.15 "HgN/A
10:50 AM63 °FScattered clouds.5 mph73%30.15 "HgN/A
10:20 AM61 °FScattered clouds.3 mph72%30.15 "HgN/A
9:50 AM57 °FPassing clouds.3 mph88%30.15 "HgN/A
9:20 AM57 °FPartly sunny.5 mph88%30.15 "HgN/A
8:50 AM55 °FPartly sunny.3 mph100%30.15 "Hg6 mi
8:20 AM54 °FPartly sunny.1 mph100%30.15 "Hg4 mi
7:50 AM54 °FClear.5 mph100%30.15 "Hg4 mi
7:20 AM52 °FClear.3 mph100%30.15 "Hg4 mi
6:50 AM52 °FClear.1 mph100%30.12 "Hg4 mi
6:20 AM52 °FOvercast.1 mph100%30.12 "Hg4 mi
8:50 PM
Sep 1
55 °FSunny.3 mph88%30.18 "Hg10 mi
8:20 PM55 °FSunny.5 mph88%30.15 "Hg10 mi
7:50 PM55 °FSunny.6 mph88%30.15 "Hg10 mi
7:20 PM57 °FPartly sunny.6 mph82%30.15 "HgN/A
6:50 PM57 °FPartly sunny.6 mph77%30.15 "HgN/A
6:20 PM57 °FPartly sunny.7 mph72%30.15 "HgN/A
5:50 PM59 °FPartly sunny.8 mph68%30.15 "HgN/A
5:20 PM59 °FPartly sunny.8 mph68%30.15 "HgN/A
4:50 PM59 °FPartly sunny.7 mph63%30.15 "HgN/A
4:20 PM59 °FPartly sunny.7 mph68%30.15 "HgN/A
3:50 PM57 °FPartly sunny.7 mph72%30.15 "HgN/A
3:20 PM57 °FPartly sunny.9 mph72%30.15 "HgN/A
2:50 PM57 °FPartly sunny.9 mph77%30.15 "HgN/A
2:20 PM59 °FPartly sunny.9 mph68%30.12 "HgN/A
Weather by CustomWeather, © 2014

See weather overviewHow to use our weather pages